This demonstration page uses our WeatherBlox Daily Observations layout. Learn more.

Left ArrowRight Arrow

Hourly Observations for December 9, 2021

Temp ( °F °C ) Dew Point ( °F °C ) Humidity (%) Winds ( mph kmh ) Pressure ( in mb ) Visibility ( mi km ) Precip ( " mm )
12:59 am 00:59 Clear 40 4.4 34 1.1 79 79 N 8 13 30.11 1020 10 16 0.00 0.00
1:59 am 01:59 Clear 40 4.4 29 -1.7 65 65 NNW 14 22 30.12 1020 10 16 0.00 0.00
2:59 am 02:59 Clear 38 3.3 28 -2.2 68 68 NNW 8 13 30.16 1021 10 16 0.00 0.00
3:59 am 03:59 Clear 38 3.3 26 -3.3 62 62 N 9 15 30.17 1022 10 16 0.00 0.00
4:59 am 04:59 Clear 39 3.9 26 -3.3 60 60 N 13 20 30.19 1023 10 16 0.00 0.00
5:59 am 05:59 Clear 39 3.9 25 -3.9 57 57 NNE 17 28 30.22 1024 10 16 0.00 0.00
6:59 am 06:59 Partly Cloudy 39 3.9 25 -3.9 57 57 N 10 17 30.22 1024 10 16 0.00 0.00
7:59 am 07:59 Partly Cloudy 40 4.4 25 -3.9 55 55 N 10 17 30.27 1025 10 16 0.00 0.00
8:59 am 08:59 Mostly Cloudy 41 5 26 -3.3 55 55 N 10 17 30.29 1026 9 14 0.00 0.00
9:59 am 09:59 Mostly Cloudy 43 6.1 27 -2.8 53 53 NNE 8 13 30.30 1026 9 14 0.00 0.00
10:59 am 10:59 Mostly Cloudy 43 6.1 29 -1.7 58 58 N 8 13 30.30 1026 9 14 0.00 0.00
11:59 am 11:59 Mostly Cloudy 44 6.7 26 -3.3 49 49 NNE 8 13 30.30 1026 10 16 0.00 0.00
12:59 pm 12:59 Mostly Cloudy 44 6.7 27 -2.8 51 51 NE 8 13 30.28 1026 10 16 0.00 0.00
1:59 pm 13:59 Cloudy 44 6.7 27 -2.8 51 51 ENE 7 11 30.28 1025 10 16 0.00 0.00
2:59 pm 14:59 Cloudy 43 6.1 27 -2.8 53 53 ESE 7 11 30.26 1025 10 16 0.00 0.00
3:59 pm 15:59 Cloudy 43 6.1 28 -2.2 56 56 Calm 30.28 1025 10 16 0.00 0.00
4:59 pm 16:59 Mostly Cloudy 42 5.6 27 -2.8 55 55 S 5 7 30.27 1025 9 14 0.00 0.00
5:59 pm 17:59 Partly Cloudy 40 4.4 27 -2.8 60 60 SSE 3 6 30.29 1026 10 16 0.00 0.00
6:59 pm 18:59 Mostly Clear 39 3.9 28 -2.2 65 65 Calm 30.29 1026 10 16 0.00 0.00
7:59 pm 19:59 Mostly Clear 36 2.2 29 -1.7 76 76 SE 3 6 30.29 1026 9 14 0.00 0.00
8:59 pm 20:59 Mostly Clear 37 2.8 28 -2.2 70 70 SSE 5 7 30.26 1025 9 14 0.00 0.00
9:59 pm 21:59 Mostly Clear 35 1.7 28 -2.2 76 76 Calm 30.27 1025 9 14 0.00 0.00
10:59 pm 22:59 Mostly Clear 32 0 27 -2.8 82 82 Calm 30.26 1025 8 13 0.00 0.00
11:59 pm 23:59 Mostly Clear 35 1.7 28 -2.2 76 76 SSE 6 9 30.21 1023 9 14 0.00 0.00

Powered by AerisWeather